Temperature
7 7 7 7 7 7 6 6 6 6 5 6 6 6 6 6 6 6 6 6 6 6 6 6 6 6 6 6 6 6 6 5 5 5 5 5 5 5
6 6 6 6 6 6 6 6 6 6 5 6 6 6 6 6 6 6 6 6 5 5 5 5 5 5 5 5 5 5 5 5 5 5 5 4 4 4
6 6 6 6 6 6 6 5 5 5 5 5 5 5 5 5 5 5 5 5 5 5 5 5 5 5 5 5 5 5 5 5 4 4 4 4 4 4
5 5 5 5 5 5 5 5 5 5 5 5 5 5 5 5 5 5 5 5 5 5 4 4 4 4 4 4 4 4 4 4 4 4 4 4 4 3
5 5 5 5 5 5 5 4 4 4 4 4 4 4 4 4 4 4 4 4 4 4 4 4 4 4 4 4 4 4 4 3 3 3 3 3 3 3
5 5 5 4 4 4 4 4 4 4 4 4 3 3 4 4 4 4 4 4 4 4 4 3 3 3 3 3 3 3 3 3 3 3 3 3 3 3
4 4 4 4 4 4 4 4 4 3 3 3 3 3 3 3 3 3 3 3 3 3 3 3 3 3 3 3 3 2 2 2 2 2 2 2 2 2
4 4 4 4 4 4 3 3 3 3 3 3 3 3 3 3 3 3 3 3 3 3 2 3 2 2 2 2 2 2 2 2 2 2 2 2 1 1
4 4 4 3 3 3 3 3 3 3 2 2 3 3 3 3 2 2 2 2 2 2 2 2 2 2 2 2 2 2 1 1 1 1 1 1 1 1
3 3 3 3 3 3 3 2 2 2 2 2 2 2 2 2 2 2 2 2 2 1 1 1 2 2 2 2 1 1 1 1 1 1 0 0 0 -0
3 3 3 3 3 2 2 2 2 2 2 2 2 2 2 1 1 1 1 1 1 1 1 1 1 1 1 1 1 1 1 0 0 0 -0 -0 -0 -1
2 2 2 2 2 2 2 2 2 2 2 1 1 1 1 1 1 0 0 0 0 0 0 -0 0 -0 -0 0 1 0 0 -0 -0 -0 -1 -1 -1 -1
2 2 2 1 1 1 1 1 1 1 1 1 1 1 1 0 0 -0 -0 -0 -0 -1 -0 -1 -1 -1 -1 -1 -0 -0 -1 -1 -1 -1 -1 -1 -2 -2
1 1 1 1 1 1 1 1 1 0 0 0 0 0 0 -0 -0 -0 -1 -1 -1 -1 -1 -2 -2 -2 -2 -2 -2 -1 -1 -2 -2 -2 -2 -2 -2 -2
0 0 0 0 0 0 0 0 -0 -0 -0 -0 -0 -0 -0 -1 -1 -1 -1 -1 -1 -1 -2 -2 -2 -2 -3 -3 -3 -3 -2 -2 -2 -2 -3 -3 -3 -3
-0 -1 -1 -1 -1 -1 -1 -1 -1 -1 -1 -1 -1 -1 -1 -1 -1 -2 -2 -2 -2 -2 -2 -2 -3 -3 -3 -3 -3 -3 -3 -4 -3 -3 -3 -3 -3 -3
-1 -1 -1 -2 -2 -2 -2 -2 -1 -1 -2 -1 -2 -2 -2 -2 -2 -2 -2 -2 -3 -3 -3 -3 -3 -3 -4 -4 -4 -4 -4 -4 -4 -4 -4 -4 -4 -4
-2 -2 -2 -2 -2 -2 -2 -2 -2 -2 -2 -2 -2 -2 -3 -3 -3 -3 -3 -3 -3 -3 -3 -3 -4 -4 -4 -4 -4 -4 -4 -5 -5 -5 -5 -5 -4 -4
-2 -2 -2 -2 -2 -2 -2 -2 -3 -3 -3 -3 -3 -3 -3 -3 -4 -4 -4 -4 -4 -4 -4 -4 -5 -5 -6 -6 -5 -5 -5 -5 -5 -5 -5 -5 -5 -4
-3 -3 -3 -3 -3 -3 -3 -3 -3 -3 -3 -4 -4 -4 -4 -4 -4 -4 -4 -5 -5 -5 -5 -5 -5 -6 -6 -6 -6 -5 -5 -6 -6 -6 -5 -5 -5 -5
-3 -3 -4 -4 -3 -3 -3 -4 -4 -4 -4 -4 -4 -4 -5 -5 -5 -5 -5 -5 -5 -5 -5 -5 -6 -6 -6 -6 -6 -6 -5 -6 -6 -6 -6 -6 -6 -5
-4 -4 -4 -4 -4 -4 -4 -4 -4 -4 -5 -5 -5 -5 -5 -5 -5 -5 -5 -6 -6 -6 -6 -6 -6 -6 -7 -7 -7 -6 -6 -6 -6 -6 -6 -6 -7 -6
-4 -4 -4 -4 -5 -5 -5 -5 -5 -5 -5 -5 -5 -6 -6 -6 -6 -6 -6 -6 -6 -6 -6 -6 -6 -7 -7 -7 -7 -7 -7 -6 -6 -6 -6 -6 -6 -6
Wind_Speed
5 5 4 3 3 3 2 3 4 3 4 3 2 3 5 7 8 8 8 9 10 9 9 8 7 7 7 8 7 7 8 9 9 9 10 10 11 12
5 5 5 3 3 3 3 2 2 3 3 3 3 3 4 5 7 7 8 9 10 10 9 8 8 7 8 8 8 8 8 9 10 10 11 12 12 13
5 6 5 4 4 3 3 3 2 2 2 2 1 1 2 2 3 6 7 7 8 10 10 9 9 9 9 9 9 9 9 10 10 11 11 12 13 13
7 6 6 5 5 4 4 4 3 3 3 2 2 1 2 3 3 4 5 6 7 9 10 10 10 10 10 10 10 10 10 11 11 11 12 13 13 14
7 7 7 7 6 5 5 5 4 3 2 2 2 2 2 2 2 2 3 3 5 7 9 9 9 10 10 10 11 11 11 11 12 12 13 13 13 14
6 7 7 8 7 7 6 5 4 4 3 3 2 2 1 1 1 2 2 2 3 5 7 7 9 9 10 11 11 11 11 12 12 12 13 13 13 14
5 6 6 8 9 8 6 6 5 4 3 3 2 2 2 1 3 2 3 2 3 3 2 4 6 6 9 11 11 11 11 11 11 13 13 13 14 14
6 5 5 6 7 8 8 8 8 7 6 5 4 4 5 4 3 3 2 2 3 3 2 4 4 4 7 8 11 11 11 11 12 12 12 13 13 14
6 5 5 5 7 5 6 7 7 8 8 7 6 6 6 5 5 4 4 3 4 3 2 4 3 5 6 9 11 12 11 11 12 12 12 13 14 14
6 6 6 6 6 6 5 5 5 6 7 6 6 6 5 4 5 5 5 3 2 2 2 3 3 4 5 8 11 11 11 11 11 12 13 13 13 14
5 6 6 6 8 7 6 5 5 4 5 6 6 5 5 6 5 2 2 2 3 3 1 2 2 3 3 4 8 9 10 10 11 12 13 13 13 13
3 4 6 6 7 8 7 6 6 4 3 2 3 3 4 5 6 5 4 3 2 3 2 1 2 1 3 3 3 6 7 9 11 12 13 13 13 10
3 3 3 6 6 7 6 5 6 4 3 3 2 2 1 1 2 3 4 4 3 3 2 1 1 1 2 3 3 3 5 6 8 10 11 12 13 11
3 3 3 5 5 6 5 4 4 3 2 2 2 2 2 2 1 2 2 3 3 4 5 3 2 2 2 4 4 3 3 6 6 6 8 11 12 13
2 3 4 5 5 4 4 4 3 3 3 3 3 2 2 1 1 0 0 1 2 2 3 3 2 2 3 4 4 4 5 4 5 4 5 6 6 8
2 2 2 3 3 3 3 2 2 3 3 3 2 1 1 1 1 1 1 1 1 2 2 3 4 3 3 4 5 6 5 4 4 5 5 6 7 9
2 1 1 2 2 2 1 2 2 2 2 1 2 2 1 1 1 1 1 1 1 2 2 2 3 4 5 4 5 6 6 6 5 5 5 7 7 7
3 2 3 3 3 3 3 2 2 2 2 2 2 2 2 2 2 1 1 1 2 3 3 2 2 3 3 4 7 6 5 5 5 5 5 6 8 7
3 3 3 3 3 3 3 2 2 2 2 2 2 2 2 2 2 2 2 2 2 3 3 2 2 2 4 5 4 5 4 5 5 5 5 6 8 8
2 3 3 3 3 3 3 2 2 2 2 2 2 2 2 2 2 2 2 3 3 3 3 2 2 3 5 5 5 5 7 5 4 6 6 6 6 9
2 2 2 2 2 3 3 3 3 3 2 2 2 2 2 2 2 3 3 4 3 3 4 4 4 5 3 2 4 5 4 7 8 6 5 6 6 5
2 2 2 2 2 2 2 3 3 3 3 3 3 2 2 3 3 3 3 3 3 4 4 4 3 2 2 4 6 7 6 6 8 10 9 8 5 4
1 1 2 2 2 2 2 3 3 3 3 3 3 2 3 3 3 3 3 3 3 3 3 3 3 2 3 4 5 6 7 7 5 5 6 10 11 13
Wind_Direction
198 196 197 200 192 193 181 175 176 211 239 233 227 218 208 211 221 216 218 231 238 244 252 261 266 266 272 284 278 281 283 285 287 286 286 289 290 288
193 193 198 196 190 188 188 199 196 196 228 227 226 226 204 221 231 224 225 234 237 241 247 252 259 262 268 272 271 276 278 281 282 283 285 286 287 289
194 193 198 193 189 190 186 192 206 191 217 257 250 220 203 223 231 228 231 231 235 242 246 250 255 261 268 271 269 275 277 278 280 282 283 285 287 288
197 191 197 194 195 192 190 198 208 206 200 228 250 238 238 229 215 219 229 232 238 245 247 250 254 259 266 271 269 273 274 275 276 279 281 284 285 286
198 196 197 193 200 198 194 200 204 208 203 203 229 250 258 240 212 228 238 239 243 250 249 250 254 260 265 272 274 274 274 273 273 277 280 282 284 285
201 200 199 199 201 197 200 200 195 200 201 194 215 234 256 259 197 221 254 252 258 255 248 254 257 259 265 272 275 274 275 274 273 276 279 280 282 283
204 203 204 203 206 202 203 197 192 200 203 205 212 225 233 218 222 226 243 253 259 239 242 250 248 251 260 266 267 270 275 277 276 276 278 281 282 283
205 203 201 201 205 207 208 205 200 203 206 208 215 221 226 226 219 224 229 242 261 235 228 257 236 244 252 257 267 271 273 277 281 283 284 285 285 285
202 197 207 208 202 200 208 211 213 218 214 211 215 220 220 216 209 220 225 238 245 233 230 259 241 247 255 264 271 269 271 278 282 284 286 288 288 288
205 200 202 201 202 198 200 208 218 224 223 221 218 221 222 211 207 216 226 244 281 259 213 246 253 252 270 264 268 267 273 281 287 290 290 290 291 291
212 203 198 200 204 196 194 205 219 230 233 223 222 225 227 220 210 184 194 218 263 263 233 227 257 280 279 269 263 270 274 282 290 294 292 290 291 292
216 207 203 205 205 198 199 203 214 221 205 212 222 226 224 218 210 200 196 211 243 249 226 206 252 298 289 276 262 269 274 282 291 293 294 294 296 294
215 214 211 208 210 207 208 204 213 209 191 194 208 212 207 210 215 216 207 205 219 241 219 177 238 237 240 284 285 266 264 280 287 287 291 298 302 298
216 214 213 204 205 206 209 206 198 186 173 186 205 222 227 234 234 227 229 228 231 239 227 213 225 228 255 282 283 290 288 281 277 277 284 297 300 297
221 214 205 198 195 193 195 195 190 177 176 190 205 224 230 225 182 126 356 331 312 292 256 248 228 238 246 265 277 287 298 290 270 273 283 283 282 289
219 201 188 183 182 180 175 179 185 188 187 194 196 202 194 184 196 200 213 216 290 308 301 272 252 237 259 267 272 280 281 279 287 289 290 286 281 277
173 160 171 172 176 175 178 181 179 176 194 189 180 186 201 216 230 215 210 224 244 263 290 299 282 266 254 250 266 266 270 277 281 293 300 295 285 273
171 182 191 193 196 196 195 197 197 192 192 185 185 193 206 212 221 232 236 235 248 258 262 274 306 320 313 279 238 251 261 269 284 292 293 291 289 285
179 190 200 202 203 198 195 197 208 198 181 180 189 194 203 212 218 227 231 241 249 255 260 259 267 279 288 291 278 234 255 283 292 291 283 283 286 291
193 194 198 198 198 196 195 195 192 184 184 191 193 194 199 210 222 233 236 238 246 256 264 261 245 243 252 268 279 280 270 269 278 284 288 289 285 289
201 197 197 199 201 201 199 194 192 197 197 196 200 202 209 216 226 234 241 254 255 255 257 257 252 269 267 277 286 285 278 276 278 280 287 297 299 299
206 205 205 200 198 197 193 190 193 197 199 204 208 211 216 222 228 233 236 245 251 253 258 264 267 265 251 264 280 289 295 300 298 293 285 279 282 281
233 223 211 201 197 194 195 193 196 203 205 205 206 214 219 227 234 235 236 242 252 261 270 276 275 263 261 263 276 285 290 298 302 308 300 300 297 292
Height
1507 1509 1510 1512 1514 1516 1517 1519 1520 1519 1520 1521 1521 1522 1523 1523 1523 1523 1523 1524 1524 1524 1524 1525 1525 1524 1524 1524 1523 1523 1523 1523 1522 1522 1522 1521 1520 1520
1502 1504 1506 1508 1510 1511 1513 1514 1515 1516 1515 1516 1517 1518 1518 1519 1519 1519 1519 1519 1519 1520 1520 1520 1520 1520 1520 1519 1519 1518 1518 1518 1517 1517 1516 1516 1515 1514
1497 1499 1501 1503 1505 1507 1508 1510 1511 1512 1511 1512 1513 1514 1514 1514 1513 1514 1514 1515 1515 1515 1515 1515 1515 1515 1514 1514 1514 1513 1513 1512 1512 1511 1511 1510 1510 1509
1492 1494 1496 1498 1500 1501 1503 1505 1506 1507 1508 1507 1508 1509 1509 1509 1509 1509 1509 1510 1510 1510 1510 1510 1510 1510 1509 1509 1508 1508 1507 1507 1506 1506 1505 1505 1504 1503
1487 1489 1491 1493 1494 1496 1498 1499 1501 1502 1503 1503 1503 1504 1504 1504 1504 1504 1505 1505 1505 1505 1505 1505 1505 1505 1504 1504 1503 1503 1502 1501 1500 1500 1499 1498 1497 1496
1482 1484 1486 1488 1489 1491 1493 1494 1496 1497 1498 1498 1499 1499 1499 1499 1499 1500 1500 1500 1500 1501 1501 1501 1500 1500 1499 1499 1498 1497 1496 1495 1494 1493 1493 1492 1491 1490
1478 1479 1481 1483 1485 1486 1488 1489 1491 1492 1493 1493 1494 1494 1494 1494 1495 1495 1495 1495 1495 1496 1495 1496 1495 1494 1494 1493 1493 1492 1491 1490 1488 1487 1486 1485 1484 1483
1473 1474 1476 1478 1480 1482 1483 1485 1486 1487 1488 1488 1488 1489 1489 1490 1490 1491 1490 1490 1489 1491 1490 1490 1490 1489 1489 1488 1487 1486 1485 1484 1482 1481 1480 1479 1477 1476
1468 1469 1471 1473 1475 1477 1478 1480 1481 1482 1483 1484 1484 1484 1485 1485 1486 1486 1486 1486 1485 1485 1485 1483 1484 1483 1483 1482 1482 1481 1479 1478 1477 1475 1474 1472 1471 1470
1463 1465 1466 1468 1470 1471 1473 1474 1475 1476 1477 1478 1479 1480 1481 1481 1481 1482 1481 1481 1480 1480 1480 1478 1477 1477 1477 1476 1476 1475 1474 1472 1471 1469 1467 1466 1464 1463
1459 1460 1461 1463 1465 1467 1468 1469 1470 1471 1472 1473 1474 1474 1475 1476 1476 1476 1476 1475 1474 1474 1474 1474 1472 1470 1470 1470 1469 1469 1468 1467 1465 1463 1461 1460 1458 1457
1454 1455 1457 1458 1460 1461 1462 1463 1464 1465 1467 1467 1468 1469 1470 1470 1471 1471 1471 1471 1469 1469 1469 1469 1467 1466 1463 1463 1463 1463 1462 1461 1459 1458 1455 1454 1452 1450
1449 1450 1451 1453 1455 1456 1457 1458 1459 1461 1461 1462 1463 1464 1464 1465 1465 1466 1466 1466 1465 1464 1465 1464 1463 1462 1461 1458 1457 1457 1456 1454 1453 1451 1450 1448 1446 1445
1444 1445 1447 1448 1450 1451 1452 1453 1455 1456 1457 1457 1458 1458 1459 1459 1460 1460 1461 1461 1460 1460 1460 1460 1459 1458 1456 1454 1452 1451 1450 1449 1447 1446 1444 1442 1441 1439
1440 1441 1442 1444 1445 1446 1447 1449 1450 1451 1452 1452 1453 1453 1454 1455 1455 1456 1456 1456 1456 1456 1455 1455 1454 1453 1452 1450 1448 1446 1445 1443 1442 1440 1438 1436 1434 1433
1436 1437 1439 1440 1441 1442 1443 1444 1446 1447 1447 1448 1448 1449 1450 1450 1450 1451 1451 1451 1451 1451 1451 1450 1450 1449 1447 1446 1444 1442 1441 1439 1437 1435 1432 1430 1429 1427
1433 1434 1435 1436 1437 1438 1439 1440 1442 1443 1444 1444 1444 1445 1445 1446 1446 1447 1447 1447 1446 1445 1445 1446 1445 1444 1443 1441 1439 1437 1436 1434 1432 1430 1427 1424 1423 1422
1429 1430 1431 1432 1433 1434 1435 1437 1438 1438 1439 1440 1440 1440 1441 1441 1442 1442 1443 1442 1442 1441 1441 1440 1440 1438 1437 1435 1435 1433 1431 1429 1427 1425 1423 1420 1417 1416
1425 1425 1426 1428 1429 1430 1432 1433 1433 1434 1435 1436 1436 1436 1437 1437 1438 1438 1438 1438 1438 1438 1437 1436 1435 1434 1432 1430 1429 1430 1427 1424 1422 1420 1418 1416 1412 1410
1421 1421 1423 1424 1425 1426 1428 1429 1430 1430 1431 1432 1432 1432 1433 1433 1433 1434 1434 1434 1434 1433 1433 1432 1432 1431 1430 1428 1425 1424 1424 1421 1418 1415 1413 1411 1408 1406
1417 1418 1419 1420 1421 1422 1424 1425 1425 1426 1427 1428 1428 1429 1429 1429 1430 1430 1430 1430 1430 1429 1429 1428 1428 1427 1426 1424 1422 1419 1418 1417 1415 1412 1409 1406 1403 1400
1414 1414 1415 1416 1417 1418 1419 1420 1421 1422 1423 1424 1424 1425 1425 1426 1426 1426 1427 1427 1426 1426 1425 1424 1424 1423 1422 1420 1417 1415 1413 1412 1411 1409 1407 1405 1402 1398
1410 1411 1411 1412 1413 1414 1415 1416 1417 1418 1419 1420 1420 1421 1422 1422 1423 1423 1423 1423 1422 1422 1421 1420 1420 1419 1418 1416 1414 1412 1409 1407 1405 1404 1403 1401 1399 1397